ROMMA est une association bénévole à but non lucratif. Votre soutien est indispensable : ADHERER à ROMMA ou FAIRE un DON

Chambon - (38, Isère)

Oisans (2460 m)   Longitude: 06° 10' 42" E   Latitude: 45° 01' 32" N Station partenaire n°803
 

Détail journalier du     <<     >>

Température Humidité Vent Dir Rafale Dir. rafale Neige 1 Neige 2
Heure (°C) (%) (km/h) (km/h) (cm) (cm)
01:00 7.65827SSO79SSO03
02:00 7.06525SSO77SSO03
03:00 6.27425SSO71SSO03
04:00 5.18216S58S03
05:00 4.78418S52S03
06:00 5.77918S66S03
07:00 3.79110NE61S03
08:00 4.08912NE51NE03
09:00 3.29318SSO62SSO03
10:00 1.6987SE40SE03
11:00 1.39713S58SSO03
12:00 0.69814SSO51SSO04
13:00 0.1999N33SSO04
14:00 -0.11009N44SO05
15:00 0.010013SO48OSO04
16:00 -1.59931SO67SO07
17:00 -1.59927SO57SO07
18:00 -1.79921SSO46SSO07
19:00 -1.610019OSO29OSO07
20:00 -1.910013OSO27OSO09
21:00 -2.710015SO24SO09
22:00 -2.410013SO23SO010
23:00 -2.810015SO24SO010
minuit -3.010016SO24SO010

Graphique du 15-10-2019

 

Serveur OMMA